Sun Princess — ZCBU6 — position and weather

sailwx.info

Track history (hours):
 
Tides and Currents Weather Stations Pressure Air Temp Water Temp Dewpoint Dewpoint Depression Visibility Wind Speed Wind Dir Waves Ship Positions

Sun Princess

Operator: Princess Cruises

Last reported at 2017-Aug-20 12:29 UTC. Time now 2017-Aug-23 08:04 UTC.
Position S 26°39' E 153°14'.

Length 261.3 m; beam 32.3 m; draft 8.1 m.

Type: Passenger vessel. MMSI: 310438000.

Date/timePositionNaut miles runAvg speedWind from/ knotsBaromVisibWave heightAir tempDewpointWater temp
2017-Aug-20 12:29S 26°39' E 153°14'912.3
2017-Aug-20 11:44S 26°48' E 153°11'312.2
2017-Aug-20 11:30S 26°50' E 153°09'816.8
2017-Aug-20 11:00S 26°58' E 153°13'816.1
2017-Aug-20 10:30S 27°04' E 153°18'815.8
2017-Aug-20 10:00S 27°12' E 153°21'815.7
2017-Aug-20 09:30S 27°17' E 153°14'613.0
2017-Aug-20 09:00S 27°23' E 153°10'4 7.9
2017-Aug-20 08:30S 27°26' E 153°07'3 5.4
2017-Aug-20 08:00S 27°27' E 153°04'0 0.6
2017-Aug-20 07:29S 27°26' E 153°04'0 0.0
2017-Aug-20 06:56S 27°26' E 153°04'0 0.0
2017-Aug-20 06:29S 27°26' E 153°04'0 0.0
2017-Aug-19 21:53S 27°26' E 153°04'0 0.0
2017-Aug-19 21:29S 27°26' E 153°04'0 0.0
2017-Aug-19 20:59S 27°26' E 153°04'0 0.2
2017-Aug-19 20:30S 27°27' E 153°04'3 5.5
2017-Aug-19 20:00S 27°26' E 153°07'4 7.2
2017-Aug-19 19:30S 27°23' E 153°10'510.5
2017-Aug-19 19:00S 27°19' E 153°13'713.2
2017-Aug-19 18:30S 27°15' E 153°19'713.8
2017-Aug-19 18:00S 27°08' E 153°21'815.2
2017-Aug-19 17:30S 27°02' E 153°15'816.4
2017-Aug-19 17:00S 26°55' E 153°12'712.7
2017-Aug-19 16:29S 26°48' E 153°10'613.4
2017-Aug-19 16:00S 26°42' E 153°12'  
2017-Aug-13 08:57S 22°24' E 166°47'511.1
2017-Aug-13 08:30S 22°23' E 166°42'611.4
2017-Aug-13 08:00S 22°22' E 166°36'611.1
2017-Aug-13 07:30S 22°21' E 166°30'510.9
2017-Aug-13 07:00S 22°18' E 166°25'3 6.9
2017-Aug-13 06:30S 22°15' E 166°24'2 4.0
2017-Aug-13 06:00S 22°16' E 166°26'0 0.0
2017-Aug-13 05:30S 22°16' E 166°26'0 0.0
2017-Aug-13 05:00S 22°16' E 166°26'0 0.0
2017-Aug-13 04:30S 22°16' E 166°26'0 0.0
2017-Aug-13 04:00S 22°16' E 166°26'0 0.0
2017-Aug-13 03:27S 22°16' E 166°26'0 0.0
2017-Aug-13 03:00S 22°16' E 166°26'0 0.0
2017-Aug-13 02:30S 22°16' E 166°26'0 0.0
2017-Aug-13 01:57S 22°16' E 166°26'0 0.0
2017-Aug-13 01:30S 22°16' E 166°26'0 0.0
2017-Aug-13 01:00S 22°16' E 166°26'0 0.0
2017-Aug-13 00:30S 22°16' E 166°26'0 0.0
2017-Aug-13 00:00S 22°16' E 166°26'0 0.0
2017-Aug-12 23:30S 22°16' E 166°26'0 0.0
2017-Aug-12 23:00S 22°16' E 166°26'0 0.0
2017-Aug-12 22:30S 22°16' E 166°26'0 0.0
2017-Aug-12 22:00S 22°16' E 166°26'0 0.0
2017-Aug-12 21:30S 22°16' E 166°26'0 0.0
2017-Aug-12 20:57S 22°16' E 166°26'0 0.7
2017-Aug-12 20:30S 22°16' E 166°26'4 7.3
2017-Aug-12 20:01S 22°15' E 166°22'816.9
2017-Aug-12 19:30S 22°21' E 166°15'611.5
2017-Aug-12 19:00S 22°25' E 166°11'713.1
2017-Aug-12 18:30S 22°27' E 166°04'70614.3
2017-Aug-10 17:16S 26°29' E 153°55'614.3
2017-Aug-10 16:50S 26°31' E 153°48'1515.3
2017-Aug-10 15:53S 26°36' E 153°33'815.3
2017-Aug-10 15:23S 26°38' E 153°25'615.2
2017-Aug-10 14:59S 26°40' E 153°18'714.2
2017-Aug-10 14:30S 26°43' E 153°11'612.8
2017-Aug-10 14:00S 26°49' E 153°09'815.3
2017-Aug-10 13:30S 26°56' E 153°12'815.5
2017-Aug-10 13:00S 27°03' E 153°17'714.8
2017-Aug-10 12:30S 27°09' E 153°21'  
Track history (hours):
 
Tides and Currents Weather Stations Pressure Air Temp Water Temp Dewpoint Dewpoint Depression Visibility Wind Speed Wind Dir Waves Ship Positions

Sun Princess

Operator: Princess Cruises

Last reported at 2017-Aug-20 12:29 UTC. Time now 2017-Aug-23 08:04 UTC.
Position S 26°39' E 153°14'.

Length 261.3 m; beam 32.3 m; draft 8.1 m.

Type: Passenger vessel. MMSI: 310438000.

Date/timePositionNaut miles runAvg speedWind from/ knotsBaromVisibWave heightAir tempDewpointWater temp
2017-Aug-20 12:29S 26°39' E 153°14'912.3
2017-Aug-20 11:44S 26°48' E 153°11'312.2
2017-Aug-20 11:30S 26°50' E 153°09'816.8
2017-Aug-20 11:00S 26°58' E 153°13'816.1
2017-Aug-20 10:30S 27°04' E 153°18'815.8
2017-Aug-20 10:00S 27°12' E 153°21'815.7
2017-Aug-20 09:30S 27°17' E 153°14'613.0
2017-Aug-20 09:00S 27°23' E 153°10'4 7.9
2017-Aug-20 08:30S 27°26' E 153°07'3 5.4
2017-Aug-20 08:00S 27°27' E 153°04'0 0.6
2017-Aug-20 07:29S 27°26' E 153°04'0 0.0
2017-Aug-20 06:56S 27°26' E 153°04'0 0.0
2017-Aug-20 06:29S 27°26' E 153°04'0 0.0
2017-Aug-19 21:53S 27°26' E 153°04'0 0.0
2017-Aug-19 21:29S 27°26' E 153°04'0 0.0
2017-Aug-19 20:59S 27°26' E 153°04'0 0.2
2017-Aug-19 20:30S 27°27' E 153°04'3 5.5
2017-Aug-19 20:00S 27°26' E 153°07'4 7.2
2017-Aug-19 19:30S 27°23' E 153°10'510.5
2017-Aug-19 19:00S 27°19' E 153°13'713.2
2017-Aug-19 18:30S 27°15' E 153°19'713.8
2017-Aug-19 18:00S 27°08' E 153°21'815.2
2017-Aug-19 17:30S 27°02' E 153°15'816.4
2017-Aug-19 17:00S 26°55' E 153°12'712.7
2017-Aug-19 16:29S 26°48' E 153°10'613.4
2017-Aug-19 16:00S 26°42' E 153°12'  
2017-Aug-13 08:57S 22°24' E 166°47'511.1
2017-Aug-13 08:30S 22°23' E 166°42'611.4
2017-Aug-13 08:00S 22°22' E 166°36'611.1
2017-Aug-13 07:30S 22°21' E 166°30'510.9
2017-Aug-13 07:00S 22°18' E 166°25'3 6.9
2017-Aug-13 06:30S 22°15' E 166°24'2 4.0
2017-Aug-13 06:00S 22°16' E 166°26'0 0.0
2017-Aug-13 05:30S 22°16' E 166°26'0 0.0
2017-Aug-13 05:00S 22°16' E 166°26'0 0.0
2017-Aug-13 04:30S 22°16' E 166°26'0 0.0
2017-Aug-13 04:00S 22°16' E 166°26'0 0.0
2017-Aug-13 03:27S 22°16' E 166°26'0 0.0
2017-Aug-13 03:00S 22°16' E 166°26'0 0.0
2017-Aug-13 02:30S 22°16' E 166°26'0 0.0
2017-Aug-13 01:57S 22°16' E 166°26'0 0.0
2017-Aug-13 01:30S 22°16' E 166°26'0 0.0
2017-Aug-13 01:00S 22°16' E 166°26'0 0.0
2017-Aug-13 00:30S 22°16' E 166°26'0 0.0
2017-Aug-13 00:00S 22°16' E 166°26'0 0.0
2017-Aug-12 23:30S 22°16' E 166°26'0 0.0
2017-Aug-12 23:00S 22°16' E 166°26'0 0.0
2017-Aug-12 22:30S 22°16' E 166°26'0 0.0
2017-Aug-12 22:00S 22°16' E 166°26'0 0.0
2017-Aug-12 21:30S 22°16' E 166°26'0 0.0
2017-Aug-12 20:57S 22°16' E 166°26'0 0.7
2017-Aug-12 20:30S 22°16' E 166°26'4 7.3
2017-Aug-12 20:01S 22°15' E 166°22'816.9
2017-Aug-12 19:30S 22°21' E 166°15'611.5
2017-Aug-12 19:00S 22°25' E 166°11'713.1
2017-Aug-12 18:30S 22°27' E 166°04'70614.3
2017-Aug-10 17:16S 26°29' E 153°55'614.3
2017-Aug-10 16:50S 26°31' E 153°48'1515.3
2017-Aug-10 15:53S 26°36' E 153°33'815.3
2017-Aug-10 15:23S 26°38' E 153°25'615.2
2017-Aug-10 14:59S 26°40' E 153°18'714.2
2017-Aug-10 14:30S 26°43' E 153°11'612.8
2017-Aug-10 14:00S 26°49' E 153°09'815.3
2017-Aug-10 13:30S 26°56' E 153°12'815.5
2017-Aug-10 13:00S 27°03' E 153°17'714.8
2017-Aug-10 12:30S 27°09' E 153°21'  

Dump ship's entire track history